St. Johnsbury, VT

3:45 AM EDT on August 18, 2017 (GMT -0400)
St. Johnsbury

Weather History for K1V4 - July, 2013

Change the Weather History Date:

Monday, July 1, 2013

  Actual Average Record
Temperature  
Mean Temperature 70 °F 69 °F  
Max Temperature 76 °F 81 °F 98 °F (1931)
Min Temperature 63 °F 58 °F 37 °F (1912)
Degree Days  
Heating Degree Days 0 1  
Month to date heating degree days 1  
Since 1 June heating degree days 73  
Since 1 July heating degree days 1  
Cooling Degree Days 5 5  
Month to date cooling degree days 5 5  
Year to date cooling degree days 101 113  
Since 1 June cooling degree days 85 95  
Growing Degree Days 19 (Base 50)    
Moisture  
Dew Point 64 °F    
Average Humidity 85    
Maximum Humidity 100    
Minimum Humidity 69    
Precipitation  
Precipitation 0.36 in 0.13 in 1.83 in (2017)
Month to date precipitation 0.36 0.13  
Year to date precipitation 17.21 17.55  
Sea Level Pressure  
Sea Level Pressure 29.98 in    
Wind  
Wind Speed - (North)    
Max Wind Speed -    
Max Gust Speed -    
T = Trace of Precipitation, MM = Missing Value Source: NWS Daily Summary

Daily Weather History Graph

Daily Weather History Graph

Search for Another Location

Airport or City:

Trip Planner

Search our weather history database for the weather conditions in past years. The results will help you decide how hot, cold, wet, or windy it might be!

Date:

Astronomy

Jul. 01, 2013 Rise Set
Actual Time 5:07 AM EDT 8:36 PM EDT
Civil Twilight 4:31 AM EDT 9:12 PM EDT
Nautical Twilight 3:43 AM EDT 10:00 PM EDT
Astronomical Twilight 2:41 AM EDT 11:01 PM EDT
Moon 12:45 AM EDT (7/1) 2:40 PM EDT (7/1)
Length of Visible Light 16h 41m
Length of Day
15h 28m
Waning Crescent, 35% of the Moon is Illuminated
Jul 1
Waning Crescent
Jul 8
New
Jul 15
First Quarter
Jul 22
Full
Jul 29
Last Quarter

Hourly Weather History & Observations

Time (EDT) Temp. Dew Point Humidity Pressure Visibility Wind Dir Wind Speed Gust Speed Precip Events Conditions
12:54 AM 69.1 °F 66.9 °F 93% 29.89 in - North - - N/A   Unknown
1:54 AM 68.0 °F 66.0 °F 93% 29.89 in - North - - N/A   Unknown
2:54 AM 66.9 °F 64.9 °F 93% 29.91 in - North - - N/A   Unknown
3:54 AM 66.9 °F 64.9 °F 93% 29.91 in - North - - N/A   Unknown
4:54 AM 66.0 °F 64.9 °F 96% 29.93 in - North - - N/A   Unknown
5:54 AM 66.9 °F 64.9 °F 93% 29.94 in - North - - N/A   Unknown
6:54 AM 68.0 °F 64.0 °F 87% 29.96 in - North - - N/A   Unknown
7:54 AM 69.1 °F 64.0 °F 84% 29.97 in - North - - N/A   Unknown
8:54 AM 71.1 °F 63.0 °F 75% 29.98 in - North - - N/A   Unknown
9:54 AM 72.0 °F 64.0 °F 76% 29.99 in - North - - N/A   Unknown
10:54 AM 73.0 °F 64.9 °F 76% 30.01 in - North - - N/A   Unknown
11:54 AM 72.0 °F 66.9 °F 84% 30.01 in - North - - N/A   Unknown
12:54 PM 72.0 °F 66.9 °F 84% 30.01 in - North - - 0.02 in   Unknown
1:54 PM 73.0 °F 64.9 °F 76% 29.99 in - North - - N/A   Unknown
2:54 PM 75.0 °F 64.9 °F 71% 30.01 in - North - - N/A   Unknown
3:54 PM 75.0 °F 64.9 °F 71% 30.00 in - North - - N/A   Unknown
4:54 PM 73.9 °F 64.0 °F 71% 30.00 in - North - - N/A   Unknown
5:54 PM 73.9 °F 64.0 °F 71% 30.00 in - North - - N/A   Unknown
6:54 PM 73.0 °F 64.0 °F 73% 30.01 in - North - - N/A   Unknown
7:54 PM 71.1 °F 62.1 °F 73% 30.02 in - North - - N/A   Unknown
8:54 PM 64.9 °F 62.1 °F 90% 30.04 in - North - - 0.02 in   Unknown
9:54 PM 64.0 °F 62.1 °F 93% 30.06 in - North - - 0.04 in   Unknown
10:54 PM 63.0 °F 62.1 °F 97% 30.04 in - North - - 0.13 in   Unknown
11:54 PM 63.0 °F 62.1 °F 97% 30.04 in - North - - 0.10 in   Unknown